This is the latest recevied weather packets stored in our database for station/object W0DXV. If no packets are shown the sender has not sent any weather packets the latest 10 day(s).
| Time | Temp. | Humidity | Pressure | Rain* | Wind** | Luminosity | Snow |
|---|---|---|---|---|---|---|---|
| 1777920936 | 26.11° C | 34% | 1010.9 hPa | 0 mm | - | 680 W/m² | - |
| 1777920633 | 26.11° C | 32% | 1010.9 hPa | 0 mm | - | 687 W/m² | - |
| 1777920328 | 26.67° C | 34% | 1010.9 hPa | 0 mm | - | 701 W/m² | - |
| 1777920023 | 26.67° C | 35% | 1010.9 hPa | 0 mm | - | 707 W/m² | - |
| 1777919721 | 26.11° C | 33% | 1011 hPa | 0 mm | - | 711 W/m² | - |
| 1777919419 | 25.56° C | 33% | 1011.1 hPa | 0 mm | - | 716 W/m² | - |
| 1777919115 | 25.56° C | 34% | 1011.2 hPa | 0 mm | - | 720 W/m² | - |
| 1777918813 | 25.56° C | 32% | 1011.1 hPa | 0 mm | - | 724 W/m² | - |
| 1777918510 | 25.56° C | 33% | 1011.3 hPa | 0 mm | - | 730 W/m² | - |
| 1777918209 | 25.56° C | 34% | 1011.4 hPa | 0 mm | - | 735 W/m² | - |
| 1777917907 | 25.56° C | 32% | 1011 hPa | 0 mm | - | 742 W/m² | - |
| 1777917605 | 26.11° C | 33% | 1011.3 hPa | 0 mm | - | 747 W/m² | - |
| 1777917302 | 25.56° C | 34% | 1011.3 hPa | 0 mm | - | 751 W/m² | - |
| 1777916999 | 25° C | 33% | 1011.3 hPa | 0 mm | - | 734 W/m² | - |
| 1777916697 | 25° C | 34% | 1011.2 hPa | 0 mm | - | 761 W/m² | - |
| 1777916394 | 25° C | 37% | 1011.5 hPa | 0 mm | - | 757 W/m² | - |
| 1777916090 | 25.56° C | 34% | 1011.4 hPa | 0 mm | - | 760 W/m² | - |
| 1777915788 | 24.44° C | 33% | 1011.5 hPa | 0 mm | - | 768 W/m² | - |
| 1777915483 | 24.44° C | 34% | 1011.6 hPa | 0 mm | - | 790 W/m² | - |
| 1777915180 | 24.44° C | 38% | 1011.7 hPa | 0 mm | - | 782 W/m² | - |
| 1777914877 | 23.89° C | 36% | 1011.4 hPa | 0 mm | - | 786 W/m² | - |
| 1777914574 | 24.44° C | 35% | 1011.9 hPa | 0 mm | - | 766 W/m² | - |
| 1777914270 | 24.44° C | 35% | 1011.9 hPa | 0 mm | - | 761 W/m² | - |
| 1777913967 | 24.44° C | 37% | 1012.1 hPa | 0 mm | - | 763 W/m² | - |
| 1777913664 | 24.44° C | 36% | 1012 hPa | 0 mm | - | 758 W/m² | - |
* Rain latest hour (hover to see other rain measurements)
** Current wind speed in m/s (hover to see current wind gust speed)